Regional Weather Roundup
Issued by NWS Midland/Odessa, TX

Skip options and go directly to product.
Home | Oldest Version | Next Version | Current Version | All | Text Only | Save Text | Print | Product List | Glossary On

Skip product version selection by date and time.   
828
ASUS44 KMAF 051201
RWRMAF
MIDLAND AREA WEATHER ROUNDUP
NATIONAL WEATHER SERVICE MIDLAND TX
700 AM CDT TUE MAY 05 2015

...IN SOUTHWEST TEXAS AND SOUTHEAST NEW MEXICO...

CITY           SKY/WX    TMP DP  RH WIND       PRES   REMARKS
ALPINE         CLEAR     56  54  92 W6        29.99S
ANDREWS        CLOUDY    63  62  99 S15G22    29.86R
ARTESIA        CLEAR     55  55 100 W8        29.90R
BIG SPRING     CLOUDY    64  61  90 SE15      29.90F
CARLSBAD       CLEAR     58  55  90 NW8       29.87R
DRYDEN           N/A     69  63  81 SE14G22   29.84R
FORT STOCKTON  CLEAR     63  60  90 S10       29.85R
GUAD PASS      FOG       52  52 100 W8        29.96R VSB 1
HOBBS          MOCLDY    55  55 100 N14       29.86F
MARFA          CLEAR     46  46 100 CALM      29.99R
MIDLAND AIRPK  CLOUDY    66  61  85 SE16G22   29.85S
MIDLAND INTL   HVY RAIN  65  62  90 S17G29    29.86R FOG
ODESSA         CLOUDY    64  61  90 S17G26    29.86R
PECOS          PTCLDY    62  59  90 W7        29.85R
PRESIDIO       FAIR      65  56  72 MISG      29.88R
SEMINOLE       RAIN      55  55  97 CALM      29.90F
SNYDER         CLOUDY    62  60  93 SE13G20   29.89F
WINK           CLOUDY    66  60  81 SW10      29.83R
$$
...OTHER STATIONS IN TEXAS...

CITY           SKY/WX    TMP DP  RH WIND       PRES   REMARKS
ABILENE        CLOUDY    66  59  78 SE13G21   29.93S
AMARILLO       LGT RAIN  56  55  97 NE14      29.89S FOG
AUSTIN         CLOUDY    66  65  96 SE6       29.99R
BROWNSVILLE    CLEAR     74  71  91 SE12      29.90R
CORPUS CHRISTI CLOUDY    74  69  85 SE17      29.92F
DALLAS FTW     MOCLDY    61  58  90 SE9       30.00S
DEL RIO        CLOUDY    71  64  78 SE14G20   29.87R
EL PASO        PTCLDY    58  50  75 NW6       29.92R
HOUSTON INT    MOCLDY    68  67  96 E7        30.01S
LUBBOCK        TSTM      57  56  96 E15       29.85F FOG
SAN ANGELO     CLOUDY    68  58  70 SE14      29.89R
SAN ANTONIO    CLOUDY    70  66  87 SE14      29.96R
WACO           CLOUDY    65  61  87 SE9       30.00R
WICHITA FALLS  NOT AVBL
$$
...OTHER LOCATIONS IN NEW MEXICO...

CITY           SKY/WX    TMP DP  RH WIND       PRES   REMARKS
ALAMAGORDO     PTCLDY    48  48 100 SE7       29.91S FOG
ALBUQUERQUE    CLOUDY    51  48  89 S8        29.94F
CANNON AFB     NOT AVBL
CLOVIS         CLOUDY    54  52  94 CALM        N/A
HOLLOMAN AFB   NOT AVBL
ROSWELL        PTCLDY    56  53  90 W7        29.88S
RUIDOSO        PTCLDY    43  41  93 W8        30.00S WCI  38
SANTA FE       CLOUDY    46  42  86 CALM      29.96F
TRUTH OR CONSE CLOUDY    50  41  71 S5        29.94R
TUCUMCARI      RAIN      55  53  93 SE3       29.92R FOG
$$

USA.gov is the U.S. government's official web portal to all federal, state and local government web resources and services.